Погода в Ине

Россия / Алтайский край     53°30′10″N   82°40′09″E
темп.,
°C
ветер,
м/с
пор.,
м/с
влажн.,
%
обл.,
%
осадки,
мм/ч
давл.,
гПа
погр.,
м
2 июля, сб
сб201:00+11з378342 0.0 1006119
04:00+12зюз41184100 0.0 1006350
07:00+13з5981100 0.0 1007588
10:00+16з587494 0.1 1006927
13:00+18з576494 0.8 10061130
16:00+20з5756100 0.9 10061537
19:00+18зюз457396 2.4 1006365
22:00+15з2384100 0.8 100759
3 июля, вс
вс301:00+11з35906 0.8 100785
04:00+10з339368 0.0 100746
07:00+12сз239087 0.0 1007106
10:00+17зсз2367100 0.0 1008657
13:00+20зюз345098 0.8 10071670
16:00+20зюз554987 0.1 10071660
19:00+20зюз345118 0.1 10071168
22:00+16з237578 0.2 100740
4 июля, пн
пн401:00+12юз11875 0.2 100810
04:00+11зсз11895 0.0 100710
07:00+13св11845 0.0 100754
10:00+19вюв21605 0.0 1007643
13:00+23ю234247 0.0 10062229
16:00+24ююв3339100 0.0 10052046
19:00+23юв2245100 0.0 10041151
22:00+17в346889 0.0 100354
5 июля, вт
вт501:00+15вюв3580100 0.0 100278
04:00+14в38789 0.0 1000143
07:00+15в4971100 0.0 1000223
10:00+21в5854100 0.0 999480
13:00+25вюв574483 0.0 998880
16:00+27юв4540100 0.0 9982193
19:00+22ю51160100 0.1 998514
22:00+16з2293100 1.7 100019
6 июля, ср
ср601:00+15ююв2295100 3.1 99928
04:00+15ю249498 1.0 99990
07:00+15ююз2495100 2.4 1000238
10:00+16юз4795100 2.5 1002469
13:00+18зюз5985100 3.8 10031120
16:00+21зюз5963100 0.3 10031517
19:00+21зюз5106215 0.5 10031396
22:00+16зюз228583 0.0 100418